When you browse on this site, cookies collect data to enhance your experience and personalize the content and advertising you see.
Visit our Privacy Policy to learn more. By continuing to use the site, you agree to this use of cookies and data.

Previsão horária em Abdul-Zavod

Hoje, 28 Setembro, Segunda-feira

Tempo Temperatura Precipitação Vento Pressão Humidade
00:00 +11°C° 0 mm 0 m/s 764 mmHg 70%
01:00 +11°C° 0 mm 0 m/s 764 mmHg 70%
02:00 +11°C° 0 mm 0 m/s 765 mmHg 70%
03:00 +12°C° 0 mm 1 m/s 765 mmHg 69%
04:00 +12°C° 0 mm 1 m/s 765 mmHg 70%
05:00 +11°C° 0 mm 1 m/s 765 mmHg 72%
06:00 +11°C° 0 mm 1 m/s 765 mmHg 73%
07:00 +13°C° 0 mm 1 m/s 765 mmHg 68%
08:00 +14°C° 0 mm 1 m/s 765 mmHg 62%
09:00 +16°C° 0 mm 1 m/s 765 mmHg 57%
10:00 +18°C° 0 mm 1 m/s 765 mmHg 53%
11:00 +19°C° 0 mm 1 m/s 765 mmHg 49%
12:00 +20°C° 0 mm 1 m/s 765 mmHg 45%
13:00 +19°C° 0 mm 2 m/s 765 mmHg 45%
14:00 +19°C° 0 mm 2 m/s 765 mmHg 45%
15:00 +19°C° 0 mm 2 m/s 765 mmHg 44%
16:00 +18°C° 0 mm 2 m/s 764 mmHg 49%
17:00 +16°C° 0 mm 2 m/s 764 mmHg 54%
18:00 +14°C° 0 mm 1 m/s 764 mmHg 59%
19:00 +14°C° 0 mm 1 m/s 764 mmHg 61%
20:00 +13°C° 0 mm 1 m/s 764 mmHg 63%
21:00 +12°C° 0 mm 1 m/s 764 mmHg 65%
22:00 +12°C° 0 mm 1 m/s 764 mmHg 67%
23:00 +12°C° 0 mm 1 m/s 764 mmHg 69%

Amanhã, 29 Setembro, Terça-feira

Tempo Temperatura Precipitação Vento Pressão Humidade
00:00 +11°C° 0 mm 1 m/s 764 mmHg 71%
01:00 +11°C° 0 mm 1 m/s 764 mmHg 73%
02:00 +11°C° 0 mm 1 m/s 764 mmHg 74%
03:00 +10°C° 0 mm 1 m/s 765 mmHg 76%
04:00 +10°C° 0 mm 1 m/s 764 mmHg 76%
05:00 +10°C° 0 mm 1 m/s 764 mmHg 77%
06:00 +10°C° 0 mm 1 m/s 764 mmHg 77%
07:00 +12°C° 0 mm 1 m/s 764 mmHg 71%
08:00 +13°C° 0 mm 1 m/s 765 mmHg 65%
09:00 +15°C° 0 mm 1 m/s 765 mmHg 58%
10:00 +16°C° 0 mm 2 m/s 764 mmHg 54%
11:00 +17°C° 0 mm 2 m/s 764 mmHg 50%
12:00 +19°C° 0 mm 2 m/s 764 mmHg 46%
13:00 +19°C° 0 mm 2 m/s 764 mmHg 47%
14:00 +19°C° 0 mm 2 m/s 764 mmHg 47%
15:00 +19°C° 0 mm 2 m/s 763 mmHg 48%
16:00 +17°C° 0 mm 2 m/s 763 mmHg 54%
17:00 +16°C° 0 mm 2 m/s 763 mmHg 60%
18:00 +14°C° 0 mm 1 m/s 763 mmHg 66%
19:00 +14°C° 0 mm 2 m/s 763 mmHg 69%
20:00 +13°C° 0 mm 2 m/s 763 mmHg 71%
21:00 +13°C° 0 mm 2 m/s 763 mmHg 74%
22:00 +12°C° 0 mm 2 m/s 763 mmHg 76%
23:00 +12°C° 0 mm 2 m/s 762 mmHg 79%

Depois de amanhã, 30 Setembro, Quarta-feira

Tempo Temperatura Precipitação Vento Pressão Humidade
00:00 +12°C° 0 mm 2 m/s 762 mmHg 81%
01:00 +10°C° 0 mm 2 m/s 762 mmHg 82%
02:00 +10°C° 0 mm 2 m/s 763 mmHg 83%
03:00 +10°C° 0 mm 2 m/s 763 mmHg 84%
04:00 +10°C° 0 mm 2 m/s 763 mmHg 84%
05:00 +9°C° 0 mm 2 m/s 763 mmHg 85%
06:00 +9°C° 0 mm 2 m/s 762 mmHg 86%
07:00 +12°C° 0 mm 2 m/s 762 mmHg 79%
08:00 +13°C° 0 mm 2 m/s 763 mmHg 73%
09:00 +14°C° 0 mm 3 m/s 763 mmHg 66%
10:00 +16°C° 0 mm 3 m/s 763 mmHg 61%
11:00 +17°C° 0 mm 3 m/s 763 mmHg 56%
12:00 +19°C° 0 mm 3 m/s 762 mmHg 51%
13:00 +19°C° 0 mm 3 m/s 762 mmHg 51%
14:00 +19°C° 0 mm 3 m/s 762 mmHg 50%
15:00 +19°C° 0 mm 3 m/s 762 mmHg 49%
16:00 +17°C° 0 mm 3 m/s 762 mmHg 54%
17:00 +16°C° 0 mm 2 m/s 762 mmHg 58%
18:00 +14°C° 0 mm 2 m/s 762 mmHg 63%
19:00 +14°C° 0 mm 2 m/s 762 mmHg 64%
20:00 +13°C° 0 mm 2 m/s 762 mmHg 66%
21:00 +13°C° 0 mm 2 m/s 762 mmHg 67%
22:00 +12°C° 0 mm 2 m/s 762 mmHg 68%
23:00 +12°C° 0 mm 1 m/s 762 mmHg 69%

1 Outubro, Quinta-feira

Tempo Temperatura Precipitação Vento Pressão Humidade
00:00 +12°C° 0 mm 1 m/s 762 mmHg 70%
01:00 +11°C° 0 mm 1 m/s 762 mmHg 72%
02:00 +11°C° 0 mm 1 m/s 762 mmHg 73%
03:00 +11°C° 0 mm 1 m/s 762 mmHg 74%
04:00 +11°C° 0 mm 1 m/s 762 mmHg 76%
05:00 +11°C° 0 mm 1 m/s 762 mmHg 78%
06:00 +10°C° 0 mm 1 m/s 762 mmHg 79%
07:00 +12°C° 0 mm 1 m/s 762 mmHg 74%
08:00 +14°C° 0 mm 1 m/s 762 mmHg 69%
09:00 +16°C° 0 mm 2 m/s 762 mmHg 64%
10:00 +17°C° 0 mm 2 m/s 762 mmHg 61%
11:00 +18°C° 0 mm 2 m/s 762 mmHg 57%
12:00 +19°C° 0 mm 2 m/s 762 mmHg 54%
13:00 +19°C° 0 mm 2 m/s 762 mmHg 53%
14:00 +19°C° 0 mm 2 m/s 762 mmHg 52%
15:00 +20°C° 0 mm 2 m/s 762 mmHg 52%
16:00 +18°C° 0 mm 2 m/s 762 mmHg 57%
17:00 +16°C° 0 mm 1 m/s 761 mmHg 61%
18:00 +15°C° 0 mm 1 m/s 761 mmHg 66%
19:00 +14°C° 0 mm 1 m/s 761 mmHg 68%
20:00 +14°C° 0 mm 1 m/s 761 mmHg 70%
21:00 +13°C° 0 mm 1 m/s 761 mmHg 71%
22:00 +13°C° 0 mm 1 m/s 761 mmHg 74%
23:00 +12°C° 0 mm 1 m/s 761 mmHg 76%

2 Outubro, Sexta-feira

Tempo Temperatura Precipitação Vento Pressão Humidade
00:00 +12°C° 0 mm 1 m/s 761 mmHg 79%
01:00 +11°C° 0 mm 0 m/s 761 mmHg 81%
02:00 +10°C° 0 mm 0 m/s 761 mmHg 82%
03:00 +10°C° 0 mm 0 m/s 761 mmHg 84%
04:00 +10°C° 0 mm 0 m/s 762 mmHg 85%
05:00 +10°C° 0 mm 0 m/s 762 mmHg 85%
06:00 +10°C° 0 mm 0 m/s 762 mmHg 86%
07:00 +12°C° 0 mm 1 m/s 762 mmHg 80%
08:00 +14°C° 0 mm 1 m/s 762 mmHg 74%
09:00 +16°C° 0 mm 1 m/s 762 mmHg 68%
10:00 +18°C° 0 mm 1 m/s 762 mmHg 63%
11:00 +19°C° 0 mm 1 m/s 762 mmHg 59%
12:00 +20°C° 0 mm 1 m/s 761 mmHg 55%
13:00 +20°C° 0 mm 1 m/s 761 mmHg 53%
14:00 +20°C° 0 mm 1 m/s 761 mmHg 51%
15:00 +20°C° 0 mm 1 m/s 761 mmHg 49%
16:00 +19°C° 0 mm 1 m/s 761 mmHg 54%
17:00 +16°C° 0 mm 1 m/s 761 mmHg 59%
18:00 +14°C° 0 mm 0 m/s 761 mmHg 64%
19:00 +13°C° 0 mm 0 m/s 761 mmHg 65%
20:00 +12°C° 0 mm 0 m/s 761 mmHg 67%
21:00 +12°C° 0 mm 0 m/s 761 mmHg 69%
22:00 +12°C° 0 mm 0 m/s 761 mmHg 70%
23:00 +11°C° 0 mm 0 m/s 761 mmHg 71%

3 Outubro, Sábado

Tempo Temperatura Precipitação Vento Pressão Humidade
00:00 +11°C° 0 mm 0 m/s 761 mmHg 73%
01:00 +10°C° 0 mm 0 m/s 761 mmHg 75%
02:00 +10°C° 0 mm 0 m/s 761 mmHg 77%
03:00 +10°C° 0 mm 0 m/s 760 mmHg 78%
04:00 +9°C° 0 mm 0 m/s 761 mmHg 79%
05:00 +9°C° 0 mm 0 m/s 761 mmHg 81%
06:00 +9°C° 0 mm 0 m/s 761 mmHg 82%
07:00 +12°C° 0 mm 1 m/s 761 mmHg 75%
08:00 +14°C° 0 mm 1 m/s 761 mmHg 69%
09:00 +15°C° 0 mm 1 m/s 761 mmHg 63%
10:00 +16°C° 0 mm 1 m/s 761 mmHg 59%
11:00 +19°C° 0 mm 1 m/s 761 mmHg 55%
12:00 +20°C° 0 mm 1 m/s 761 mmHg 51%
13:00 +20°C° 0 mm 1 m/s 760 mmHg 50%
14:00 +20°C° 0 mm 1 m/s 760 mmHg 49%
15:00 +20°C° 0 mm 1 m/s 760 mmHg 48%
16:00 +18°C° 0 mm 1 m/s 760 mmHg 54%
17:00 +16°C° 0 mm 1 m/s 760 mmHg 59%
18:00 +14°C° 0 mm 1 m/s 760 mmHg 65%
19:00 +14°C° 0 mm 1 m/s 760 mmHg 67%
20:00 +13°C° 0 mm 1 m/s 760 mmHg 68%
21:00 +12°C° 0 mm 1 m/s 760 mmHg 70%
22:00 +12°C° 0 mm 1 m/s 760 mmHg 71%
23:00 +11°C° 0 mm 1 m/s 760 mmHg 72%
Mostrar mais